星链-30113 (STARLINK-30113 )

导读

STARLINK-30113是美国太空探索技术公司(SpaceX)星链(Starlink)项目的低轨通信卫星,采用Starlink v2.0 mini平台,2023年4月19日发射。它运行在近地轨道,近地点约388.58km、远地点约434.21km,轨道倾角42.98°,周期约92.79分钟,为全球提供宽带互联网接入服务,目前仍在轨正常工作。

基本信息
目录编号:
56291
目录名称:
STARLINK-30113
国际标识:
2023-056F
轨道中心:
EARTH
卫星名称:
星链-30113
卫星全名:
星链-30113 (STARLINK-30113 )
卫星状态:
在轨 (已飞行1156 天)
发射日期:
2023-04-19 UTC
国别 :
美国 (US)
星等 :
--
轨道信息
数据来源 国际轨道数据
星历时间: 2026-06-18T05:07:06+0800
17小时前
查看轨道信息
半长轴: 6861.19km
偏心率: 0.0001602
轨道倾角: 43.004°
近地点辐角 266.433°
升交点赤经 3.025°
平近点角 93.634°
近地点: 481.953km
远地点: 484.153km
周期: 94.267分钟
每日圈数: 15.275788
详细信息
固有亮度:
5
最大亮度:
0.3
卫星平台:
Starlink v2.0 mini
覆盖范围:
全球
运营商:
太空探索技术公司
运营商所在国:
美国
制造商(研发单位):
太空探索技术公司
制造商所在国:
美国
使用方式:
暂无
卫星简介
星链(Starlink)计划是由太空探索技术公司(SpaceX)提出的一个巨型低轨卫星互联网星座项目,计划在2019年至2024年间在太空搭建由约1.2万颗卫星组成的“星链”网络,其中1584颗将部署在地球上空550千米处的近地轨道,并从2020年开始工作。该卫星仍在工作。
2D轨道图
3D轨道图
轨道高度分析图
轨道倾角分析图
轨道综合分析图
查看轨道综合分析图